Wind_Speed
10 9 8 7 6 5 3 3 3 2 1 0 1 2 3 4 4 4 4 5 6 7 7 8 8 8 8 8 8 9 9 9 10 9 9 10 10 11 12 12 13 13 13 14 14 13 13 13 13
11 10 9 9 7 6 4 4 3 2 2 1 2 3 4 4 5 5 5 6 7 8 8 9 10 10 10 9 10 10 11 11 11 10 10 11 11 12 13 13 14 14 14 14 14 14 14 14 14
12 12 11 10 8 6 5 4 4 3 3 2 2 3 5 5 5 6 6 6 7 9 10 10 11 11 11 11 11 11 11 12 12 11 11 12 13 13 14 14 14 15 15 15 15 15 15 16 16
13 12 11 10 8 6 4 4 4 4 4 4 3 5 6 6 6 6 6 7 8 9 11 12 12 12 12 12 12 12 12 12 12 12 13 14 14 14 14 15 15 16 16 16 16 16 17 17 17
13 13 12 10 8 7 5 5 5 5 5 5 6 6 7 7 6 7 8 8 9 11 12 13 13 13 12 13 13 13 13 13 13 14 14 15 15 16 16 16 16 17 17 17 17 18 18 18 18
12 13 12 11 9 8 7 6 5 4 5 5 7 7 8 9 9 9 9 9 10 12 13 13 13 12 12 13 14 14 14 14 14 15 15 16 17 17 17 18 18 18 18 18 19 19 19 19 20
12 12 12 11 10 10 9 8 6 4 4 6 6 7 9 10 10 11 11 11 11 12 12 13 13 13 13 14 15 15 15 15 15 15 16 17 18 19 18 19 19 19 19 19 20 20 21 21 21
12 12 12 11 11 10 10 9 7 6 5 6 6 6 7 9 10 11 12 12 12 13 13 14 14 14 14 15 15 16 17 17 17 17 18 18 19 19 19 20 19 19 19 20 20 21 22 22 22
11 11 11 10 11 11 11 10 8 7 6 6 7 6 6 8 10 12 13 14 15 15 15 16 15 15 15 15 16 16 17 17 19 18 19 19 20 20 21 21 20 21 21 21 21 22 22 22 23
11 10 10 10 10 11 11 11 10 9 8 8 8 8 9 10 11 12 13 15 16 16 16 16 16 16 16 16 17 18 18 18 20 20 20 21 21 21 22 22 22 22 22 22 22 22 23 23 23
10 10 10 10 11 12 12 11 11 10 10 10 9 9 10 10 12 13 14 15 16 16 16 16 16 17 17 18 19 19 19 20 21 22 21 21 21 22 22 23 23 23 24 23 23 23 23 23 24
10 10 11 11 11 12 12 12 11 11 10 10 10 10 10 11 12 14 15 16 16 17 17 17 17 17 18 19 20 21 21 22 23 23 22 22 22 23 23 23 23 24 25 24 24 24 24 25 25
10 10 11 11 11 12 14 13 13 12 11 11 11 11 12 13 13 13 15 16 16 17 18 18 19 19 20 21 22 23 23 24 24 25 24 23 23 23 23 24 24 24 24 24 24 24 24 25 25
8 9 11 11 11 13 14 15 15 13 12 13 14 14 13 14 14 15 17 17 17 18 19 19 20 20 21 22 22 24 23 23 24 24 24 24 24 24 24 23 23 23 24 24 24 25 25 26 26
8 8 9 11 12 12 14 14 13 13 13 14 14 14 15 15 16 17 18 19 19 20 21 21 21 22 22 23 23 24 24 25 24 24 24 25 25 25 24 23 24 23 24 24 25 25 26 26 25
7 8 9 10 11 12 13 12 13 14 14 15 15 15 16 16 17 19 20 21 20 21 22 22 23 24 24 24 23 24 24 25 25 25 25 26 26 25 24 24 24 25 25 25 25 27 26 26 26
8 8 9 10 11 11 11 11 12 13 14 16 16 17 18 19 19 21 22 22 23 22 23 23 24 25 25 24 24 25 25 25 26 26 27 27 27 25 25 25 25 26 26 25 25 26 26 26 27
8 8 8 10 11 11 12 12 12 13 15 16 17 18 18 19 20 21 23 23 23 24 25 25 26 26 26 26 27 26 26 26 26 27 27 27 27 27 25 25 26 26 26 26 27 27 27 27 27
8 9 9 10 11 12 13 13 13 14 15 16 17 18 19 20 22 23 23 23 24 25 26 27 27 25 26 27 28 27 27 26 27 27 26 27 27 28 26 26 26 26 26 26 27 26 27 27 27
9 10 11 11 12 13 14 15 14 15 17 18 18 19 20 22 23 23 24 25 26 27 28 28 27 27 27 28 28 27 27 27 27 27 27 27 27 27 27 27 27 26 27 27 27 26 26 26 26
10 10 11 12 13 14 16 16 16 18 18 18 19 20 22 23 24 24 25 26 27 28 28 28 27 28 29 28 28 28 28 28 28 28 27 27 27 27 27 27 27 26 27 26 26 25 25 25 26
9 10 11 12 13 14 15 16 16 17 18 18 19 21 23 24 25 26 27 27 27 27 27 27 28 29 30 30 29 28 28 27 27 27 26 27 26 26 26 26 26 25 24 24 24 25 25 25 25
9 10 11 12 13 15 15 17 16 17 17 18 19 21 23 25 26 27 27 27 27 28 28 29 29 30 31 30 30 28 27 27 26 26 26 25 25 24 24 24 24 24 24 24 25 25 24 24 25
10 11 11 12 13 14 15 17 17 18 18 18 19 21 23 25 26 27 27 27 28 29 30 30 30 31 31 30 31 29 27 26 25 25 23 24 23 22 23 23 23 23 23 23 23 24 24 25 25
11 11 12 13 14 14 15 16 18 18 19 19 20 21 23 25 26 27 27 28 29 30 30 30 31 31 30 30 29 28 26 25 24 23 23 23 23 22 22 22 22 21 21 21 21 22 24 24 25
11 12 12 13 14 14 15 17 18 19 20 20 21 22 24 25 26 27 27 28 29 30 30 29 29 30 29 29 28 27 26 24 24 23 23 23 22 20 20 20 20 20 21 21 21 22 22 24 25
13 13 13 14 15 16 16 16 18 19 20 21 22 23 24 25 26 27 28 28 28 28 28 28 28 28 28 28 28 26 24 24 23 23 22 21 21 19 19 19 20 20 21 21 22 23 23 24 25
14 15 15 14 16 16 17 18 19 19 21 23 24 25 25 25 26 26 26 27 27 27 28 27 27 27 27 27 26 24 22 21 20 19 19 19 19 19 19 19 19 20 21 22 22 22 23 24 25
15 15 15 15 16 18 19 20 21 22 23 24 25 25 25 25 25 25 26 26 27 27 27 26 26 27 26 25 23 21 19 18 18 17 17 18 18 18 18 18 19 20 21 22 22 22 22 23 24
16 16 16 16 17 18 20 21 21 22 23 24 24 24 24 24 25 25 26 26 26 26 25 25 25 25 24 23 20 18 16 16 16 16 16 17 17 17 18 18 18 19 20 21 20 20 21 22 23
Wind_Direction
216 216 214 214 216 208 194 171 159 165 202 227 345 340 331 347 353 347 336 326 332 330 324 321 316 315 314 317 315 314 315 313 311 312 316 318 318 318 315 314 314 313 310 307 304 302 300 297 296
216 216 215 218 222 218 197 184 171 183 217 237 314 331 337 340 332 334 327 320 322 321 317 313 313 310 311 312 312 313 314 312 309 310 313 313 313 314 311 309 310 310 308 306 303 301 299 296 294
215 216 219 221 224 220 205 197 195 203 232 243 301 331 332 330 326 328 321 309 310 316 309 304 306 307 310 309 309 312 313 312 307 305 307 309 310 310 308 306 307 308 306 304 302 300 299 296 293
216 217 219 221 223 222 220 227 210 210 250 263 289 323 324 319 323 332 321 304 305 311 308 305 306 307 308 306 306 309 307 308 306 304 305 305 305 305 305 303 303 304 303 301 300 299 297 297 295
216 217 218 222 223 218 224 233 232 232 245 268 294 316 327 323 323 322 324 319 309 310 310 309 310 310 308 308 307 308 306 303 302 305 303 301 300 301 302 301 300 298 298 296 296 297 296 295 294
212 217 219 222 222 221 226 232 234 244 247 283 306 313 324 327 322 317 324 327 319 313 311 311 311 310 308 307 308 307 307 304 301 299 299 297 297 297 298 298 295 294 293 292 293 294 295 294 291
214 217 219 221 223 224 231 239 247 254 260 277 303 317 318 324 322 319 320 320 321 316 311 310 310 308 306 306 306 305 306 304 302 299 299 297 295 296 295 294 292 290 290 290 291 291 292 294 291
214 219 219 219 222 227 233 239 249 255 267 277 296 313 316 317 316 317 318 314 311 310 309 306 306 303 300 302 303 304 304 301 300 299 297 296 296 296 294 292 291 290 288 287 288 289 290 291 289
213 218 220 219 225 231 237 241 248 260 267 278 288 293 302 314 316 317 317 316 311 310 307 303 300 299 299 301 301 301 298 298 298 296 295 294 293 293 292 290 290 290 287 285 285 287 289 289 289
212 218 221 221 227 237 242 246 256 261 267 276 284 290 298 308 314 317 314 314 314 309 307 305 301 298 299 299 298 297 296 296 296 294 294 292 290 288 288 288 288 287 285 285 286 286 286 286 287
214 220 227 229 234 242 247 252 259 263 269 275 285 296 301 302 308 312 313 311 310 307 304 307 303 299 298 298 295 294 296 296 297 293 292 293 290 288 287 286 284 284 284 284 284 285 286 286 286
221 224 229 232 238 248 254 257 259 261 269 274 283 290 297 300 305 309 311 310 310 309 306 304 303 300 302 301 298 295 295 295 295 296 294 293 291 290 287 287 287 285 285 284 285 285 286 286 285
228 228 232 236 242 251 257 259 260 260 264 273 281 287 291 295 300 305 306 306 306 306 306 306 307 305 303 302 298 296 294 294 294 294 289 289 289 291 289 290 288 287 287 286 287 289 289 289 289
237 237 241 246 250 256 261 265 263 262 265 271 278 284 289 296 302 305 308 307 305 305 305 307 307 306 305 303 300 298 296 294 295 292 291 292 291 292 289 292 291 288 287 286 287 288 288 288 289
245 250 252 254 258 261 264 264 264 265 269 275 279 281 287 294 302 306 307 306 304 304 306 306 306 306 307 305 302 299 296 294 292 293 293 293 293 293 293 290 291 289 289 287 287 287 287 286 287
247 250 249 251 255 261 265 264 266 269 271 275 280 286 290 295 302 305 306 307 308 307 306 305 305 305 305 303 300 300 296 295 292 292 292 292 292 293 291 289 287 288 287 288 287 287 286 286 285
256 255 255 255 257 263 266 263 267 270 274 278 283 289 294 297 301 303 304 305 307 307 306 305 305 304 303 301 299 299 298 294 291 290 292 292 291 292 290 288 287 287 287 288 287 287 286 284 285
263 266 263 259 260 263 269 269 270 275 275 278 286 292 295 299 301 302 301 302 303 304 304 303 303 303 301 300 299 297 297 294 290 292 294 292 291 291 289 288 287 286 285 286 286 286 286 287 286
268 267 267 265 268 269 274 280 278 280 281 283 288 291 294 300 301 301 302 301 301 302 302 303 302 302 300 299 298 297 296 294 291 291 292 293 293 291 289 289 288 286 283 284 286 286 286 287 287
277 271 270 271 273 274 277 282 284 283 289 288 290 292 295 297 298 300 301 301 300 300 301 302 302 300 301 299 298 296 294 293 293 292 292 293 293 292 290 289 287 286 285 285 284 285 285 286 287
287 279 274 275 275 279 284 284 286 289 294 291 289 292 296 297 298 300 300 301 301 301 302 301 301 300 299 297 294 294 292 291 292 291 292 293 293 292 290 289 286 286 286 286 284 283 285 285 286
296 287 281 280 284 287 290 293 293 294 295 294 291 293 294 295 296 298 299 301 302 303 303 303 303 302 299 298 293 291 290 290 290 290 291 290 290 291 290 290 288 287 287 286 284 285 286 286 285
308 297 290 287 289 291 293 295 297 301 300 299 297 297 295 296 298 299 301 303 305 305 305 305 304 304 302 300 297 292 290 290 290 291 292 291 291 291 291 290 289 288 288 285 284 286 288 288 288
314 306 299 295 293 294 295 295 299 303 302 299 300 300 300 301 301 302 303 304 305 305 306 307 307 306 305 301 299 296 292 291 292 292 291 290 291 291 293 292 291 290 290 289 289 289 290 291 289
313 307 298 297 295 295 298 298 300 302 304 305 306 306 303 304 304 304 305 304 305 305 305 306 306 306 305 303 301 300 295 294 291 290 290 291 290 290 292 293 295 293 292 292 294 293 291 292 293
313 312 307 303 301 299 297 299 301 302 305 309 309 308 306 306 307 307 308 307 308 308 307 307 307 306 306 307 306 304 299 294 292 291 291 292 290 291 294 296 297 296 295 296 296 297 295 296 297
315 315 315 308 305 303 304 306 306 304 306 309 310 310 310 309 310 310 311 311 311 311 309 309 308 308 308 308 308 305 301 298 297 295 294 292 289 291 294 294 297 297 299 301 299 297 298 299 299
317 317 317 312 309 308 310 310 311 311 310 310 311 312 311 311 311 313 314 315 315 315 314 313 312 311 312 312 310 307 305 301 298 297 296 292 291 293 294 295 296 299 301 302 301 299 299 301 301
320 317 317 313 311 311 311 313 315 314 314 313 313 314 313 312 312 314 316 316 316 316 316 315 315 315 315 315 312 310 306 305 303 299 294 293 296 296 294 296 298 299 300 302 302 300 299 302 303
316 317 316 313 312 310 310 314 316 315 317 316 314 315 315 315 316 315 316 317 318 318 318 318 318 319 319 318 315 313 308 306 306 306 300 297 299 299 299 298 300 301 303 304 304 304 304 305 306
Height
5873 5875 5876 5878 5880 5880 5881 5882 5881 5881 5881 5881 5880 5880 5880 5881 5882 5884 5882 5880 5880 5880 5880 5879 5878 5877 5876 5875 5874 5874 5873 5872 5872 5871 5871 5870 5870 5870 5869 5869 5868 5867 5866 5866 5865 5865 5864 5864 5863
5872 5874 5876 5877 5878 5879 5881 5880 5880 5880 5880 5880 5880 5880 5880 5880 5880 5880 5879 5879 5879 5879 5878 5877 5877 5875 5875 5874 5873 5872 5872 5871 5870 5870 5869 5869 5868 5868 5867 5866 5865 5865 5864 5863 5862 5862 5861 5861 5860
5870 5872 5875 5876 5876 5878 5880 5880 5880 5879 5879 5880 5879 5879 5880 5880 5879 5879 5879 5878 5878 5878 5877 5876 5875 5874 5873 5872 5871 5870 5870 5869 5869 5868 5867 5867 5866 5865 5865 5864 5863 5862 5861 5860 5860 5859 5858 5858 5857
5869 5871 5873 5875 5876 5877 5878 5879 5878 5879 5879 5879 5878 5879 5879 5879 5879 5878 5877 5877 5877 5876 5875 5874 5873 5872 5871 5871 5870 5869 5868 5867 5866 5866 5865 5865 5864 5863 5862 5861 5860 5859 5858 5857 5857 5856 5855 5855 5854
5867 5869 5871 5873 5875 5876 5877 5877 5877 5877 5878 5878 5878 5878 5878 5878 5878 5877 5876 5876 5875 5874 5873 5872 5871 5870 5869 5869 5868 5867 5866 5865 5864 5864 5863 5862 5861 5860 5859 5858 5857 5856 5855 5854 5853 5853 5852 5851 5850
5866 5868 5870 5872 5874 5875 5875 5876 5876 5876 5877 5877 5877 5877 5877 5877 5876 5876 5875 5874 5874 5873 5872 5871 5870 5868 5868 5867 5866 5865 5864 5863 5861 5861 5860 5859 5858 5857 5856 5855 5854 5853 5852 5851 5850 5849 5848 5847 5846
5865 5866 5868 5871 5872 5873 5874 5874 5875 5875 5876 5876 5876 5876 5876 5876 5875 5874 5873 5872 5871 5871 5869 5868 5867 5866 5865 5864 5863 5862 5861 5860 5859 5858 5857 5856 5855 5854 5853 5852 5851 5849 5848 5847 5846 5845 5844 5843 5842
5863 5866 5867 5869 5870 5871 5872 5873 5874 5874 5875 5875 5875 5875 5874 5874 5873 5872 5871 5870 5869 5869 5868 5866 5865 5864 5863 5861 5860 5859 5858 5857 5856 5855 5854 5852 5851 5850 5849 5848 5847 5846 5844 5843 5842 5841 5840 5839 5838
5863 5866 5866 5868 5869 5870 5870 5871 5872 5873 5874 5874 5874 5874 5873 5872 5871 5870 5870 5868 5867 5866 5865 5864 5863 5861 5860 5858 5857 5856 5855 5853 5853 5852 5850 5849 5848 5846 5845 5844 5843 5842 5840 5839 5838 5837 5836 5835 5834
5862 5864 5865 5866 5867 5868 5869 5870 5870 5871 5872 5872 5872 5872 5871 5871 5870 5869 5868 5866 5865 5864 5862 5861 5859 5858 5857 5855 5854 5853 5851 5850 5849 5847 5846 5845 5843 5842 5841 5839 5838 5837 5835 5834 5833 5832 5831 5830 5829
5861 5863 5864 5865 5865 5866 5867 5868 5868 5869 5870 5870 5870 5870 5870 5869 5868 5867 5866 5865 5863 5861 5860 5858 5856 5855 5854 5853 5851 5849 5848 5846 5845 5843 5841 5840 5839 5837 5836 5834 5833 5832 5831 5830 5829 5828 5826 5825 5824
5860 5861 5862 5863 5863 5864 5865 5866 5866 5867 5868 5868 5867 5867 5867 5867 5866 5865 5863 5862 5860 5859 5857 5855 5853 5852 5851 5849 5847 5846 5844 5842 5840 5838 5836 5835 5834 5832 5831 5829 5828 5827 5826 5825 5824 5823 5821 5820 5819
5859 5860 5860 5861 5862 5862 5863 5863 5864 5865 5865 5865 5865 5864 5864 5863 5862 5861 5860 5859 5857 5855 5853 5852 5850 5849 5847 5845 5843 5841 5839 5837 5835 5834 5832 5829 5828 5827 5826 5824 5823 5822 5820 5820 5818 5817 5816 5815 5814
5858 5859 5859 5859 5860 5860 5860 5860 5861 5861 5862 5862 5862 5862 5861 5860 5859 5858 5857 5855 5853 5851 5849 5848 5847 5845 5843 5841 5839 5837 5834 5833 5831 5829 5826 5824 5822 5821 5820 5818 5817 5816 5815 5814 5813 5812 5811 5809 5808
5857 5858 5858 5858 5858 5858 5858 5858 5858 5858 5859 5859 5859 5859 5858 5857 5856 5854 5853 5851 5849 5848 5846 5843 5842 5840 5838 5836 5834 5832 5829 5827 5825 5823 5822 5820 5818 5816 5814 5812 5812 5811 5810 5809 5807 5806 5805 5803 5802
5856 5857 5856 5856 5856 5856 5857 5856 5856 5856 5856 5856 5856 5855 5854 5853 5852 5851 5849 5847 5845 5843 5841 5839 5837 5835 5833 5831 5828 5826 5824 5822 5820 5818 5817 5815 5813 5811 5810 5808 5807 5806 5804 5803 5801 5800 5799 5797 5796
5855 5855 5855 5855 5854 5854 5854 5854 5853 5853 5853 5853 5853 5852 5851 5850 5849 5847 5845 5843 5841 5839 5836 5834 5832 5830 5827 5825 5823 5821 5818 5816 5814 5813 5811 5809 5808 5806 5804 5802 5801 5800 5798 5797 5795 5794 5792 5791 5789
5854 5853 5853 5853 5852 5852 5852 5852 5852 5851 5851 5850 5850 5849 5848 5847 5845 5843 5841 5839 5837 5835 5832 5829 5827 5824 5822 5819 5817 5815 5813 5810 5808 5807 5805 5803 5801 5800 5798 5797 5795 5794 5792 5791 5789 5787 5786 5784 5783
5852 5852 5851 5851 5850 5850 5850 5850 5850 5849 5848 5847 5846 5845 5844 5843 5841 5839 5837 5835 5833 5830 5827 5824 5821 5819 5816 5814 5811 5809 5807 5805 5802 5800 5799 5797 5795 5793 5791 5790 5788 5787 5786 5784 5783 5781 5779 5778 5776
5850 5850 5849 5849 5848 5848 5847 5848 5847 5846 5845 5844 5843 5841 5840 5839 5837 5835 5833 5830 5827 5825 5822 5818 5816 5813 5810 5807 5805 5802 5800 5798 5796 5794 5792 5790 5788 5786 5785 5783 5781 5780 5779 5777 5776 5774 5773 5771 5769
5848 5848 5847 5847 5846 5845 5845 5845 5844 5843 5842 5840 5839 5837 5836 5834 5833 5830 5828 5825 5822 5819 5816 5813 5810 5807 5804 5800 5797 5795 5793 5791 5789 5787 5785 5783 5781 5779 5778 5776 5774 5773 5772 5770 5768 5767 5766 5764 5763
5847 5846 5845 5844 5843 5843 5843 5842 5841 5840 5839 5837 5835 5834 5832 5830 5828 5825 5822 5819 5816 5813 5810 5807 5804 5800 5797 5793 5789 5787 5785 5783 5782 5780 5778 5776 5774 5772 5771 5769 5767 5766 5764 5763 5761 5760 5759 5757 5756
5845 5843 5842 5842 5841 5840 5840 5839 5839 5837 5835 5833 5832 5830 5828 5825 5822 5819 5816 5813 5810 5807 5804 5800 5796 5793 5789 5785 5782 5779 5777 5776 5774 5772 5770 5769 5767 5765 5764 5762 5760 5759 5757 5756 5754 5753 5751 5750 5749
5842 5841 5840 5839 5839 5838 5837 5836 5835 5833 5832 5830 5828 5825 5823 5820 5817 5813 5810 5807 5804 5800 5797 5793 5790 5786 5782 5778 5775 5772 5770 5769 5767 5765 5764 5762 5761 5759 5757 5755 5754 5753 5751 5749 5748 5746 5744 5743 5741
5841 5840 5839 5837 5836 5836 5835 5833 5833 5830 5828 5826 5824 5821 5818 5815 5812 5808 5805 5801 5798 5794 5790 5787 5783 5779 5775 5771 5768 5765 5763 5762 5760 5759 5757 5756 5755 5753 5751 5750 5748 5747 5745 5743 5742 5740 5738 5736 5734
5839 5838 5837 5835 5834 5833 5832 5830 5830 5827 5825 5822 5820 5817 5813 5810 5806 5802 5799 5795 5791 5787 5783 5779 5776 5772 5768 5765 5761 5758 5756 5755 5753 5752 5751 5750 5749 5747 5745 5744 5743 5741 5739 5738 5736 5734 5732 5730 5728
5837 5835 5835 5833 5831 5830 5829 5827 5826 5823 5821 5818 5815 5812 5808 5805 5801 5797 5793 5789 5784 5780 5776 5773 5769 5765 5762 5758 5755 5752 5749 5748 5747 5746 5745 5744 5743 5742 5741 5739 5738 5736 5734 5732 5730 5728 5725 5723 5721
5836 5834 5832 5830 5828 5826 5825 5823 5822 5819 5817 5814 5810 5807 5803 5799 5796 5792 5787 5783 5778 5775 5771 5767 5764 5760 5756 5752 5748 5745 5743 5742 5741 5740 5739 5738 5737 5736 5736 5734 5733 5731 5729 5726 5724 5722 5719 5717 5714
5834 5832 5829 5827 5825 5823 5821 5822 5818 5815 5812 5809 5805 5801 5798 5794 5790 5786 5782 5778 5774 5770 5766 5762 5758 5754 5750 5746 5743 5740 5738 5737 5736 5735 5734 5734 5733 5731 5730 5729 5727 5725 5723 5721 5719 5716 5714 5711 5708
5831 5829 5828 5826 5824 5821 5818 5820 5814 5811 5807 5804 5800 5797 5793 5789 5785 5782 5778 5773 5769 5765 5761 5757 5754 5749 5745 5741 5738 5735 5734 5733 5732 5731 5730 5729 5728 5726 5725 5724 5722 5720 5718 5716 5714 5711 5708 5706 5703